| time (UTC) | temp F | wind direction | speed MPH | gust MPH | rain 1hr in | rain 24hr in | rain mn in | humidity % | barometer mb |
| 20260509104458 | 48 | 246 | 0.0 | 2.0 | 0.00 | 0.00 | 0.00 | 76 | 1003.0 |
| 20260509102958 | 49 | 255 | 0.0 | 2.0 | 0.00 | 0.00 | 0.00 | 78 | 1002.9 |
| 20260509101459 | 49 | 302 | 1.0 | 3.0 | 0.00 | 0.00 | 0.00 | 79 | 1002.9 |
| 20260509095958 | 49 | 270 | 1.0 | 3.0 | 0.00 | 0.00 | 0.00 | 81 | 1003.0 |
| 20260509094458 | 49 | 258 | 0.0 | 0.0 | 0.00 | 0.00 | 0.00 | 81 | 1002.8 |
| 20260509084458 | 51 | 270 | 0.0 | 2.0 | 0.00 | 0.00 | 0.00 | 80 | 1002.8 |
| 20260509082958 | 52 | 317 | 1.0 | 2.0 | 0.00 | 0.00 | 0.00 | 80 | 1002.8 |
| 20260509081458 | 53 | 267 | 1.0 | 3.0 | 0.00 | 0.00 | 0.00 | 81 | 1002.8 |
| 20260509075958 | 53 | 282 | 1.0 | 3.0 | 0.00 | 0.00 | 0.00 | 81 | 1002.5 |
| 20260509074458 | 54 | 234 | 3.0 | 5.0 | 0.00 | 0.00 | 0.00 | 80 | 1002.5 |
| 20260509072959 | 54 | 180 | 0.0 | 1.0 | 0.00 | 0.00 | 0.00 | 79 | 1002.5 |
| 20260509071458 | 55 | 198 | 0.0 | 6.0 | 0.00 | 0.00 | 0.00 | 78 | 1002.6 |
| 20260509065958 | 56 | 228 | 2.0 | 7.0 | 0.00 | 0.00 | 0.00 | 77 | 1002.7 |
| 20260509064458 | 56 | 230 | 3.0 | 8.0 | 0.00 | 0.00 | 0.00 | 76 | 1002.8 |
| 20260509061458 | 57 | 223 | 3.0 | 8.0 | 0.00 | 0.00 | 0.00 | 73 | 1003.0 |
| 20260509055958 | 57 | 231 | 4.0 | 10.0 | 0.00 | 0.00 | 0.00 | 72 | 1003.1 |
| 20260509052958 | 58 | 235 | 4.0 | 7.0 | 0.00 | 0.00 | 0.00 | 69 | 1002.9 |
| 20260509051458 | 59 | 199 | 3.0 | 7.0 | 0.00 | 0.00 | 0.00 | 66 | 1002.8 |
| 20260509045958 | 59 | 185 | 3.0 | 7.0 | 0.00 | 0.00 | 0.00 | 64 | 1002.8 |
| 20260509042959 | 60 | 215 | 2.0 | 6.0 | 0.00 | 0.00 | 0.00 | 59 | 1002.8 |
| 20260509041458 | 61 | 175 | 3.0 | 6.0 | 0.00 | 0.00 | 0.00 | 56 | 1002.8 |
| 20260509034458 | 64 | 212 | 3.0 | 13.0 | 0.00 | 0.00 | 0.00 | 49 | 1003.1 |
| 20260509031458 | 66 | 198 | 4.0 | 13.0 | 0.00 | 0.00 | 0.00 | 36 | 1003.3 |
| 20260509025958 | 68 | 187 | 4.0 | 14.0 | 0.00 | 0.00 | 0.00 | 33 | 1003.2 |
| 20260509024458 | 67 | 237 | 7.0 | 16.0 | 0.00 | 0.00 | 0.00 | 32 | 1002.8 |
| 20260509022959 | 66 | 216 | 9.0 | 13.0 | 0.00 | 0.00 | 0.00 | 34 | 1002.7 |
| 20260509021458 | 66 | 202 | 2.0 | 14.0 | 0.00 | 0.00 | 0.00 | 34 | 1002.6 |
| 20260509015958 | 66 | 199 | 2.0 | 6.0 | 0.00 | 0.00 | 0.00 | 34 | 1002.4 |
| 20260509011458 | 67 | 185 | 3.0 | 6.0 | 0.00 | 0.00 | 0.00 | 32 | 1002.2 |
| 20260509005959 | 68 | 190 | 3.0 | 5.0 | 0.00 | 0.00 | 0.00 | 30 | 1002.3 |
| 20260509004459 | 69 | 191 | 1.0 | 5.0 | 0.00 | 0.00 | 0.00 | 30 | 1002.3 |
| 20260509002959 | 70 | 188 | 2.0 | 5.0 | 0.00 | 0.00 | 0.00 | 29 | 1002.3 |
| 20260509001458 | 71 | 195 | 2.0 | 8.0 | 0.00 | 0.00 | 0.00 | 27 | 1002.5 |
| 20260508235958 | 72 | 229 | 5.0 | 12.0 | 0.00 | 0.00 | 0.00 | 26 | 1002.5 |
| 20260508234459 | 73 | 233 | 3.0 | 12.0 | 0.00 | 0.00 | 0.00 | 24 | 1002.6 |
| 20260508232958 | 73 | 235 | 8.0 | 13.0 | 0.00 | 0.00 | 0.00 | 24 | 1002.8 |
| 20260508231458 | 72 | 229 | 7.0 | 13.0 | 0.00 | 0.00 | 0.00 | 25 | 1002.9 |
| 20260508225958 | 72 | 233 | 6.0 | 13.0 | 0.00 | 0.00 | 0.00 | 25 | 1003.1 |
| 20260508224459 | 73 | 254 | 5.0 | 14.0 | 0.00 | 0.00 | 0.00 | 24 | 1003.3 |
| 20260508222958 | 73 | 239 | 3.0 | 17.0 | 0.00 | 0.00 | 0.00 | 25 | 1003.3 |
| 20260508221458 | 73 | 235 | 10.0 | 17.0 | 0.00 | 0.00 | 0.00 | 24 | 1003.4 |
| 20260508215959 | 73 | 250 | 6.0 | 18.0 | 0.00 | 0.00 | 0.00 | 24 | 1003.5 |
| 20260508214458 | 74 | 240 | 5.0 | 18.0 | 0.00 | 0.00 | 0.00 | 27 | 1003.6 |
| 20260508212958 | 73 | 213 | 7.0 | 17.0 | 0.00 | 0.00 | 0.00 | 25 | 1003.6 |
| 20260508205958 | 73 | 214 | 7.0 | 17.0 | 0.00 | 0.00 | 0.00 | 25 | 1003.9 |
| 20260508204458 | 73 | 234 | 7.0 | 21.0 | 0.00 | 0.00 | 0.00 | 23 | 1004.2 |
| 20260508202959 | 72 | 217 | 9.0 | 15.0 | 0.00 | 0.00 | 0.00 | 22 | 1004.5 |
| 20260508201459 | 72 | 246 | 8.0 | 17.0 | 0.00 | 0.00 | 0.00 | 24 | 1004.6 |
| 20260508195958 | 71 | 264 | 5.0 | 10.0 | 0.00 | 0.00 | 0.00 | 25 | 1005.0 |
| 20260508194458 | 71 | 223 | 6.0 | 20.0 | 0.00 | 0.00 | 0.00 | 24 | 1005.3 |
| 20260508192958 | 71 | 255 | 6.0 | 12.0 | 0.00 | 0.00 | 0.00 | 27 | 1005.5 |
| 20260508185959 | 70 | 235 | 3.0 | 14.0 | 0.00 | 0.00 | 0.00 | 25 | 1006.0 |
| 20260508184459 | 70 | 240 | 3.0 | 16.0 | 0.00 | 0.00 | 0.00 | 26 | 1006.1 |
| 20260508182958 | 69 | 48 | 4.0 | 10.0 | 0.00 | 0.00 | 0.00 | 26 | 1006.2 |
| 20260508181458 | 69 | 325 | 3.0 | 8.0 | 0.00 | 0.00 | 0.00 | 25 | 1006.4 |
| 20260508175959 | 68 | 245 | 2.0 | 10.0 | 0.00 | 0.00 | 0.00 | 28 | 1006.6 |
| 20260508172959 | 67 | 210 | 6.0 | 12.0 | 0.00 | 0.00 | 0.00 | 28 | 1007.2 |
| 20260508171458 | 67 | 351 | 6.0 | 12.0 | 0.00 | 0.00 | 0.00 | 28 | 1007.3 |
| 20260508165959 | 66 | 181 | 3.0 | 9.0 | 0.00 | 0.00 | 0.00 | 25 | 1007.5 |
| 20260508164459 | 66 | 249 | 7.0 | 13.0 | 0.00 | 0.00 | 0.00 | 29 | 1007.9 |
| 20260508162959 | 66 | 278 | 2.0 | 12.0 | 0.00 | 0.00 | 0.00 | 31 | 1008.1 |
| 20260508161459 | 65 | 233 | 2.0 | 7.0 | 0.00 | 0.00 | 0.00 | 38 | 1008.2 |
| 20260508155959 | 65 | 203 | 1.0 | 8.0 | 0.00 | 0.00 | 0.00 | 40 | 1008.2 |
| 20260508154458 | 64 | 163 | 1.0 | 6.0 | 0.00 | 0.00 | 0.00 | 45 | 1008.3 |
| 20260508152958 | 63 | 186 | 0.0 | 5.0 | 0.00 | 0.00 | 0.00 | 48 | 1008.4 |
| 20260508151458 | 61 | 228 | 2.0 | 3.0 | 0.00 | 0.00 | 0.00 | 51 | 1008.6 |
| 20260508145959 | 60 | 90 | 0.0 | 5.0 | 0.00 | 0.00 | 0.00 | 55 | 1008.7 |
| 20260508144458 | 59 | 146 | 2.0 | 6.0 | 0.00 | 0.00 | 0.00 | 53 | 1009.0 |
| 20260508142958 | 57 | 176 | 1.0 | 5.0 | 0.00 | 0.00 | 0.00 | 54 | 1008.9 |
| 20260508141458 | 56 | 189 | 2.0 | 6.0 | 0.00 | 0.00 | 0.00 | 54 | 1009.0 |
| 20260508135958 | 54 | 155 | 1.0 | 5.0 | 0.00 | 0.00 | 0.00 | 54 | 1009.1 |
| 20260508134459 | 53 | 106 | 2.0 | 5.0 | 0.00 | 0.00 | 0.00 | 53 | 1009.1 |
| 20260508125959 | 51 | 98 | 2.0 | 3.0 | 0.00 | 0.00 | 0.00 | 48 | 1009.2 |
| 20260508124459 | 50 | 63 | 2.0 | 3.0 | 0.00 | 0.00 | 0.00 | 50 | 1009.1 |
| 20260508122959 | 49 | 104 | 2.0 | 3.0 | 0.00 | 0.00 | 0.00 | 51 | 1009.1 |
| 20260508114459 | 44 | 143 | 0.0 | 3.0 | 0.00 | 0.00 | 0.00 | 58 | 1009.1 |
| 20260508112958 | 44 | 84 | 0.0 | 2.0 | 0.00 | 0.00 | 0.00 | 58 | 1009.1 |
| 20260508111459 | 43 | 82 | 1.0 | 3.0 | 0.00 | 0.00 | 0.00 | 57 | 1009.1 |
| 20260508110000 | 43 | 86 | 1.0 | 3.0 | 0.00 | 0.00 | 0.00 | 58 | 1009.0 |